Regional Weather Roundup
Issued by NWS

Home | Current Version | Previous Version | Graphics & Text | Print | Product List | Glossary On
Versions: 1 2 3 4 5 6 7 8 9 10 11 12 13 14 15 16 17 18 19 20 21 22 23 24 25 26 27 28 29 30 31 32 33 34 35 36 37 38 39 40 41 42 43 44 45 46 47 48 49 50
000
ASUS43 KLMK 241010
RWRKY
KENTUCKY REGIONAL WEATHER ROUNDUP
NATIONAL WEATHER SERVICE LOUISVILLE KY
600 AM EDT TUE MAY 24 2016

NOTE "FAIR" INDICATES FEW OR NO CLOUDS BELOW 12,000 FEET
WITH NO SIGNIFICANT WEATHER AND/OR OBSTRUCTIONS TO VISIBILITY.

KYZ001>023-026-027-061>063-070>075-241100-
WESTERN AND SOUTH CENTRAL KENTUCKY

CITY           SKY/WX    TMP DP  RH WIND       PRES   REMARKS
PADUCAH        CLOUDY    60  57  89 CALM      30.00S
HENDERSON      CLOUDY    57  50  77 CALM      30.02S
OWENSBORO      CLEAR     57  50  78 CALM      30.05R
HOPKINSVILLE   PTCLDY    58  52  81 CALM      30.05R
BOWLING GREEN  CLEAR     51  50  96 CALM      30.07R
GLASGOW        CLEAR     47  47 100 CALM      30.08R
$$

KYZ024-025-028>034-038-045-046-053-241100-
NORTH CENTRAL KENTUCKY

CITY           SKY/WX    TMP DP  RH WIND       PRES   REMARKS
LOUISVILLE/SDF PTCLDY    58  50  75 CALM      30.07R
LOUISVILLE/LOU CLEAR     55  50  83 CALM      30.08R
FORT KNOX      CLEAR     50  49  95 E2        30.05R
$$

KYZ035>037-039>044-047>052-055>060-089>105-241100-
NORTHEAST KENTUCKY

CITY           SKY/WX    TMP DP  RH WIND       PRES   REMARKS
LEXINGTON      CLEAR     54  49  83 S5        30.08R
COVINGTON      CLEAR     55  49  80 CALM      30.07R
FRANKFORT      CLEAR     50  46  86 CALM      30.08R
$$

KYZ054-064>069-076>088-106>120-241100-
SOUTHEAST KENTUCKY

CITY           SKY/WX    TMP DP  RH WIND       PRES   REMARKS
JACKSON        CLEAR     55  49  80 CALM      30.09R
LONDON         CLEAR     49  46  90 CALM      30.09R
SOMERSET       CLEAR     46  46 100 CALM      30.11R
MIDDLESBORO    CLEAR     47  47 100 CALM      30.12R
MONTICELLO     SUNNY     49  48  97 CALM      30.11R
$$





USA.gov is the U.S. government's official web portal to all federal, state and local government web resources and services.